Location: Peterborough
(44.3091°N, 78.3197°W)
Time: 04:00:55
(UTC-04:00)

S-56A Canister/Altair - Pass Details

Date: 24 March 2023
Orbit: 639 x 2492 km, 38.9° (Epoch: 08 June)

Event Time Altitude Azimuth Distance (km) Brightness Sun altitude
Rises 03:11:10 0° 285° (WNW) 6,164 12.0 -38.0°
Enters shadow 03:13:24 - 281° (W) 5,686 11.7 -37.8°
Reaches altitude 10° 03:16:00 10° 276° (W) 5,147 - -37.5°
Maximum altitude 03:27:30 29° 225° (SW) 3,550 - -36.2°
Drops below altitude 10° 03:37:18 10° 172° (S) 4,316 - -35.0°
Sets 03:40:58 0° 161° (SSE) 5,046 - -34.6°
